Orbital Elements at Epoch 2459200.5 (2020-Dec-17.0) TDB
Reference: JPL 16 (heliocentric ecliptic J2000)
Element | Value | Uncertainty (1-sigma) | Units |
e | .2105609397035123 | 3.7545e-08 | |
a | 2.383738806517004 | 1.1299e-08 | au |
q | 1.881816523409054 | 9.1712e-08 | au |
i | 4.302120435629337 | 3.8571e-06 | deg |
node | 215.3131515074035 | 6.0294e-05 | deg |
peri | 172.7335223457128 | 6.1278e-05 | deg |
M | 191.1695109368373 | 1.2437e-05 | deg |
tp | 2459830.926999711641 (2022-Sep-08.42699971) | 4.9221e-05 | TDB |
period | 1344.269753381351 3.68 | 9.5577e-06 2.617e-08 | d yr |
n | .2678033922093855 | 1.9041e-09 | deg/d |
Q | 2.885661089624953 | 1.3678e-08 | au |
|
| | Orbit Determination Parameters
Additional Information
|